| time (UTC) | temp C | wind direction | speed KPH | gust KPH | rain 1hr cm | rain 24hr cm | rain mn cm | humidity % | barometer mb |
| 20260508093043 | -1 | 0 | 0.0 | 3.2 | 0.00 | 0.00 | 0.00 | 93 | 1015.0 |
| 20260508091543 | 0 | 0 | 0.0 | 0.0 | 0.00 | 0.00 | 0.00 | 93 | 1015.0 |
| 20260508090107 | 0 | 0 | 0.0 | 0.0 | 0.00 | 0.00 | 0.00 | 92 | 1015.0 |
| 20260508084543 | 0 | 0 | 0.0 | 0.0 | 0.00 | 0.00 | 0.00 | 92 | 1015.0 |
| 20260508083038 | 0 | 0 | 0.0 | 0.0 | 0.00 | 0.00 | 0.00 | 92 | 1015.1 |
| 20260508081559 | 0 | 0 | 0.0 | 0.0 | 0.00 | 0.00 | 0.00 | 92 | 1015.1 |
| 20260508080044 | 0 | 0 | 0.0 | 0.0 | 0.00 | 0.00 | 0.00 | 92 | 1014.8 |
| 20260508074546 | 0 | 0 | 0.0 | 0.0 | 0.00 | 0.00 | 0.00 | 91 | 1014.7 |
| 20260508073104 | 0 | 0 | 0.0 | 0.0 | 0.00 | 0.00 | 0.00 | 90 | 1014.5 |
| 20260508071540 | 0 | 0 | 0.0 | 0.0 | 0.00 | 0.00 | 0.00 | 91 | 1014.5 |
| 20260508070039 | 0 | 0 | 0.0 | 0.0 | 0.00 | 0.00 | 0.00 | 90 | 1014.7 |
| 20260508064547 | 0 | 0 | 0.0 | 0.0 | 0.00 | 0.03 | 0.00 | 89 | 1014.6 |
| 20260508063044 | 1 | 0 | 0.0 | 0.0 | 0.00 | 0.03 | 0.00 | 88 | 1014.8 |
| 20260508061544 | 1 | 0 | 0.0 | 0.0 | 0.00 | 0.03 | 0.00 | 88 | 1014.6 |
| 20260508060059 | 1 | 0 | 0.0 | 0.0 | 0.00 | 0.03 | 0.00 | 86 | 1014.5 |
| 20260508054539 | 1 | 0 | 0.0 | 0.0 | 0.00 | 0.08 | 0.00 | 85 | 1014.6 |
| 20260508053037 | 2 | 0 | 0.0 | 0.0 | 0.00 | 0.08 | 0.00 | 84 | 1014.5 |
| 20260508051559 | 2 | 0 | 0.0 | 0.0 | 0.00 | 0.08 | 0.00 | 83 | 1014.6 |
| 20260508050043 | 2 | 0 | 0.0 | 0.0 | 0.00 | 0.08 | 0.00 | 83 | 1014.8 |
| 20260508044546 | 2 | 0 | 0.0 | 0.0 | 0.00 | 0.08 | 0.00 | 82 | 1014.7 |
| 20260508043040 | 3 | 0 | 0.0 | 0.0 | 0.00 | 0.08 | 0.00 | 81 | 1014.6 |
| 20260508041537 | 3 | 0 | 0.0 | 0.0 | 0.00 | 0.08 | 0.00 | 80 | 1014.6 |
| 20260508040052 | 3 | 0 | 0.0 | 0.0 | 0.00 | 0.08 | 0.00 | 79 | 1014.6 |
| 20260508034547 | 4 | 0 | 0.0 | 0.0 | 0.00 | 0.08 | 0.08 | 79 | 1014.4 |
| 20260508033044 | 4 | 0 | 0.0 | 0.0 | 0.00 | 0.08 | 0.08 | 78 | 1014.4 |
| 20260508031541 | 5 | 0 | 0.0 | 0.0 | 0.00 | 0.08 | 0.08 | 76 | 1014.2 |
| 20260508030038 | 5 | 0 | 0.0 | 0.0 | 0.00 | 0.08 | 0.08 | 76 | 1014.1 |
| 20260508024611 | 5 | 0 | 0.0 | 0.0 | 0.00 | 0.10 | 0.08 | 77 | 1014.0 |
| 20260508023040 | 5 | 0 | 0.0 | 0.0 | 0.00 | 0.10 | 0.08 | 77 | 1013.9 |
| 20260508021541 | 6 | 0 | 0.0 | 0.0 | 0.00 | 0.10 | 0.08 | 78 | 1013.6 |
| 20260508020047 | 6 | 0 | 0.0 | 0.0 | 0.00 | 0.10 | 0.08 | 76 | 1013.5 |
| 20260508014549 | 6 | 0 | 0.0 | 0.0 | 0.00 | 0.10 | 0.08 | 73 | 1013.4 |
| 20260508013043 | 7 | 0 | 0.0 | 0.0 | 0.00 | 0.10 | 0.08 | 71 | 1013.2 |
| 20260508011541 | 8 | 0 | 0.0 | 3.2 | 0.00 | 0.10 | 0.08 | 64 | 1013.0 |
| 20260508010049 | 8 | 0 | 0.0 | 1.6 | 0.00 | 0.10 | 0.08 | 63 | 1012.7 |
| 20260508004551 | 9 | 0 | 0.0 | 4.8 | 0.00 | 0.13 | 0.08 | 58 | 1012.6 |
| 20260508003040 | 10 | 252 | 1.6 | 4.8 | 0.00 | 0.13 | 0.08 | 57 | 1012.4 |
| 20260508001546 | 10 | 269 | 3.2 | 12.9 | 0.00 | 0.13 | 0.08 | 55 | 1012.3 |
| 20260508000038 | 11 | 271 | 6.4 | 16.1 | 0.00 | 0.13 | 0.08 | 53 | 1012.1 |
| 20260507234538 | 11 | 288 | 4.8 | 14.5 | 0.00 | 0.23 | 0.08 | 53 | 1012.0 |
| 20260507233046 | 11 | 246 | 8.0 | 20.9 | 0.00 | 0.23 | 0.08 | 53 | 1012.0 |
| 20260507231543 | 12 | 292 | 6.4 | 12.9 | 0.00 | 0.23 | 0.08 | 52 | 1011.9 |
| 20260507230055 | 12 | 242 | 8.0 | 22.5 | 0.00 | 0.23 | 0.08 | 52 | 1011.7 |
| 20260507224537 | 12 | 279 | 14.5 | 22.5 | 0.00 | 0.25 | 0.08 | 51 | 1011.7 |
| 20260507223040 | 12 | 266 | 12.9 | 20.9 | 0.00 | 0.25 | 0.08 | 53 | 1011.7 |
| 20260507221545 | 12 | 285 | 11.3 | 20.9 | 0.00 | 0.25 | 0.08 | 53 | 1011.5 |
| 20260507220045 | 12 | 275 | 16.1 | 30.6 | 0.00 | 0.25 | 0.08 | 52 | 1011.3 |
| 20260507214539 | 13 | 268 | 14.5 | 25.7 | 0.00 | 0.30 | 0.08 | 50 | 1011.0 |
| 20260507213039 | 12 | 288 | 6.4 | 22.5 | 0.00 | 0.30 | 0.08 | 53 | 1010.9 |
| 20260507211543 | 13 | 259 | 14.5 | 25.7 | 0.00 | 0.30 | 0.08 | 51 | 1010.7 |
| 20260507210056 | 12 | 267 | 4.8 | 19.3 | 0.00 | 0.30 | 0.08 | 55 | 1010.4 |
| 20260507204542 | 12 | 259 | 8.0 | 22.5 | 0.00 | 0.33 | 0.08 | 58 | 1010.6 |
| 20260507203108 | 12 | 341 | 8.0 | 24.1 | 0.00 | 0.33 | 0.08 | 55 | 1010.6 |
| 20260507201537 | 12 | 296 | 8.0 | 20.9 | 0.00 | 0.33 | 0.08 | 59 | 1010.7 |
| 20260507200044 | 12 | 253 | 8.0 | 24.1 | 0.00 | 0.33 | 0.08 | 59 | 1010.7 |
| 20260507194538 | 12 | 333 | 9.7 | 19.3 | 0.00 | 0.36 | 0.08 | 59 | 1011.1 |
| 20260507193040 | 12 | 331 | 9.7 | 19.3 | 0.00 | 0.36 | 0.08 | 58 | 1011.1 |
| 20260507191539 | 13 | 325 | 11.3 | 27.4 | 0.00 | 0.36 | 0.08 | 56 | 1011.2 |
| 20260507190053 | 12 | 284 | 3.2 | 17.7 | 0.00 | 0.36 | 0.08 | 59 | 1011.2 |
| 20260507184540 | 12 | 321 | 6.4 | 22.5 | 0.00 | 0.38 | 0.08 | 60 | 1011.2 |
| 20260507183038 | 12 | 302 | 6.4 | 17.7 | 0.00 | 0.38 | 0.08 | 59 | 1011.5 |
| 20260507181537 | 12 | 275 | 11.3 | 29.0 | 0.00 | 0.38 | 0.08 | 61 | 1011.4 |
| 20260507180040 | 12 | 343 | 6.4 | 24.1 | 0.00 | 0.38 | 0.08 | 58 | 1011.5 |
| 20260507174547 | 11 | 315 | 9.7 | 16.1 | 0.00 | 0.58 | 0.08 | 61 | 1011.4 |
| 20260507173115 | 11 | 261 | 12.9 | 20.9 | 0.00 | 0.58 | 0.08 | 62 | 1011.7 |
| 20260507171543 | 11 | 240 | 8.0 | 19.3 | 0.00 | 0.58 | 0.08 | 63 | 1012.1 |
| 20260507170040 | 11 | 269 | 12.9 | 20.9 | 0.00 | 0.58 | 0.08 | 62 | 1012.1 |
| 20260507164537 | 11 | 302 | 8.0 | 19.3 | 0.00 | 0.61 | 0.08 | 62 | 1012.2 |
| 20260507163040 | 11 | 275 | 11.3 | 20.9 | 0.00 | 0.61 | 0.08 | 62 | 1012.4 |
| 20260507161549 | 11 | 232 | 8.0 | 19.3 | 0.00 | 0.61 | 0.08 | 62 | 1012.4 |
| 20260507160050 | 11 | 279 | 6.4 | 17.7 | 0.00 | 0.61 | 0.08 | 59 | 1012.4 |
| 20260507154547 | 11 | 42 | 4.8 | 17.7 | 0.00 | 0.64 | 0.08 | 63 | 1012.5 |
| 20260507153038 | 10 | 107 | 4.8 | 14.5 | 0.00 | 0.64 | 0.08 | 61 | 1012.6 |
| 20260507151537 | 10 | 271 | 4.8 | 14.5 | 0.00 | 0.64 | 0.08 | 67 | 1012.5 |
| 20260507150041 | 10 | 258 | 0.0 | 14.5 | 0.00 | 0.64 | 0.08 | 70 | 1012.9 |
| 20260507144538 | 8 | 332 | 4.8 | 12.9 | 0.00 | 0.64 | 0.08 | 72 | 1012.8 |
| 20260507143050 | 8 | 298 | 3.2 | 11.3 | 0.00 | 0.64 | 0.08 | 73 | 1012.9 |
| 20260507141548 | 8 | 304 | 3.2 | 8.0 | 0.00 | 0.64 | 0.08 | 75 | 1013.0 |
| 20260507140037 | 8 | 114 | 0.0 | 6.4 | 0.00 | 0.64 | 0.08 | 80 | 1013.4 |
| 20260507134546 | 8 | 36 | 3.2 | 11.3 | 0.00 | 0.64 | 0.08 | 79 | 1013.6 |
| 20260507133109 | 7 | 5 | 1.6 | 8.0 | 0.00 | 0.64 | 0.08 | 84 | 1013.5 |
| 20260507131545 | 7 | 60 | 1.6 | 8.0 | 0.00 | 0.64 | 0.08 | 84 | 1013.4 |
| 20260507130048 | 7 | 0 | 1.6 | 6.4 | 0.00 | 0.64 | 0.08 | 87 | 1013.6 |
| 20260507124856 | 7 | 0 | 1.6 | 8.0 | 0.00 | 0.74 | 0.08 | 88 | 1013.4 |
| 20260507123040 | 7 | 36 | 0.0 | 4.8 | 0.00 | 0.74 | 0.08 | 91 | 1013.3 |
| 20260507121542 | 7 | 315 | 1.6 | 4.8 | 0.00 | 0.74 | 0.08 | 93 | 1013.5 |
| 20260507113044 | 6 | 0 | 0.0 | 1.6 | 0.00 | 1.22 | 0.08 | 94 | 1013.1 |
| 20260507111543 | 6 | 0 | 0.0 | 3.2 | 0.00 | 1.22 | 0.08 | 94 | 1013.0 |
| 20260507110046 | 6 | 343 | 0.0 | 3.2 | 0.00 | 1.22 | 0.08 | 94 | 1012.8 |
| 20260507104547 | 6 | 0 | 0.0 | 1.6 | 0.00 | 1.68 | 0.08 | 94 | 1012.6 |
| 20260507103044 | 6 | 0 | 0.0 | 3.2 | 0.00 | 1.68 | 0.08 | 93 | 1012.5 |
| 20260507101547 | 6 | 0 | 0.0 | 3.2 | 0.00 | 1.68 | 0.08 | 93 | 1012.5 |
| 20260507100042 | 6 | 0 | 0.0 | 1.6 | 0.00 | 1.68 | 0.08 | 93 | 1012.7 |
| 20260507094554 | 6 | 36 | 0.0 | 1.6 | 0.00 | 1.93 | 0.08 | 93 | 1012.7 |